IK4PKL-13 Weather Reports


time (UTC)temp
C
wind
direction
speed
KPH
gust
KPH
rain 1hr
cm
rain 24hr
cm
rain mn
cm
humidity
%
barometer
mb
20260507203546 16 0.0 1.6 0.00 0.00 0.00 82 1017.4
20260507202538 16 149 1.6 3.2 0.00 0.00 0.00 81 1017.4
20260507201531 16 0.0 0.0 0.00 0.00 0.00 81 1017.4
20260507200540 16 0.0 0.0 0.00 0.00 0.00 80 1017.3
20260507195530 17 0.0 1.6 0.00 0.00 0.00 78 1017.4
20260507194525 17 125 1.6 3.2 0.00 0.00 0.00 77 1017.4
20260507193547 17 0.0 0.0 0.00 0.00 0.00 78 1017.3
20260507192538 17 139 0.0 1.6 0.00 0.00 0.00 77 1017.2
20260507191531 17 119 1.6 4.8 0.00 0.00 0.00 75 1017.1
20260507190522 17 114 1.6 4.8 0.00 0.00 0.00 76 1017.0
20260507185550 17 143 0.0 1.6 0.00 0.00 0.00 76 1017.0
20260507184541 17 124 0.0 1.6 0.00 0.00 0.00 76 1016.9
20260507183548 18 114 0.0 1.6 0.00 0.00 0.00 76 1016.7
20260507182540 18 132 1.6 3.2 0.00 0.00 0.00 75 1016.8
20260507181547 18 133 1.6 4.8 0.00 0.00 0.00 75 1016.7
20260507180539 18 120 3.2 6.4 0.00 0.00 0.00 74 1016.4
20260507175531 19 131 1.6 11.3 0.00 0.00 0.00 73 1016.3
20260507174543 19 116 3.2 14.5 0.00 0.00 0.00 74 1016.3
20260507173518 19 103 6.4 12.9 0.00 0.00 0.00 75 1016.2
20260507172539 19 103 6.4 16.1 0.00 0.00 0.00 77 1016.2
20260507171531 19 103 4.8 14.5 0.00 0.00 0.00 77 1016.2
20260507170524 19 105 3.2 14.5 0.00 0.00 0.00 79 1016.1
20260507165549 20 99 4.8 16.1 0.00 0.00 0.00 77 1016.2
20260507164619 20 111 6.4 12.9 0.00 0.00 0.00 75 1016.2
20260507163531 20 107 4.8 12.9 0.00 0.00 0.00 72 1016.1
20260507162522 20 101 4.8 11.3 0.00 0.00 0.00 67 1016.2
20260507161547 20 65 4.8 16.1 0.00 0.00 0.00 64 1016.3
20260507160522 20 59 4.8 12.9 0.00 0.00 0.00 59 1016.2
20260507155547 20 78 3.2 12.9 0.00 0.00 0.00 59 1016.3
20260507154539 20 89 4.8 12.9 0.00 0.00 0.00 60 1016.4
20260507153531 20 53 8.0 17.7 0.00 0.00 0.00 60 1016.4
20260507152522 20 61 6.4 14.5 0.00 0.00 0.00 57 1016.4
20260507151547 20 83 4.8 20.9 0.00 0.00 0.00 53 1016.4
20260507150539 20 83 4.8 14.5 0.00 0.00 0.00 51 1016.3
20260507145532 20 64 8.0 17.7 0.00 0.00 0.00 51 1016.4
20260507144522 20 65 6.4 16.1 0.00 0.00 0.00 55 1016.4
20260507143548 20 54 6.4 12.9 0.00 0.00 0.00 61 1016.5
20260507142538 20 55 4.8 14.5 0.00 0.00 0.00 58 1016.6
20260507141531 20 60 6.4 17.7 0.00 0.00 0.00 55 1016.5
20260507140524 20 46 8.0 17.7 0.00 0.00 0.00 56 1016.6
20260507135547 20 86 6.4 14.5 0.00 0.00 0.00 58 1016.5
20260507134538 20 54 6.4 14.5 0.00 0.00 0.00 55 1016.6
20260507133531 20 43 6.4 14.5 0.00 0.00 0.00 57 1016.6
20260507132522 20 41 6.4 17.7 0.00 0.00 0.00 56 1016.5
20260507131547 20 52 6.4 17.7 0.00 0.00 0.00 57 1016.6
20260507130540 20 24 9.7 17.7 0.00 0.00 0.00 60 1016.7
20260507125531 20 31 8.0 16.1 0.00 0.00 0.00 58 1016.5
20260507124524 20 24 9.7 20.9 0.00 0.00 0.00 59 1016.5
20260507123546 20 29 9.7 20.9 0.00 0.00 0.00 59 1016.6
20260507122538 20 31 8.0 16.1 0.00 0.00 0.00 56 1016.7
20260507121530 21 43 6.4 16.1 0.00 0.00 0.00 54 1016.6
20260507120602 21 50 6.4 14.5 0.00 0.00 0.00 51 1016.7
20260507115546 20 53 6.4 12.9 0.00 0.00 0.00 51 1016.7
20260507114538 20 53 6.4 20.9 0.00 0.00 0.00 54 1016.8
20260507113531 20 35 8.0 17.7 0.00 0.00 0.00 53 1016.8
20260507112523 20 55 8.0 14.5 0.00 0.00 0.00 56 1016.9
20260507111546 20 27 11.3 16.1 0.00 0.00 0.00 54 1016.9
20260507110538 20 52 6.4 16.1 0.00 0.00 0.00 55 1016.9
20260507105546 20 43 6.4 20.9 0.00 0.00 0.00 58 1017.0
20260507104538 20 17 6.4 16.1 0.00 0.00 0.00 54 1016.9
20260507103532 20 33 9.7 17.7 0.00 0.00 0.00 57 1016.9
20260507102543 20 28 9.7 20.9 0.00 0.00 0.00 56 1017.0
20260507101547 21 332 6.4 12.9 0.00 0.00 0.00 54 1016.8
20260507100559 20 41 6.4 11.3 0.00 0.00 0.00 55 1016.9
20260507095531 20 343 6.4 14.5 0.00 0.00 0.00 55 1017.0
20260507094523 20 24 6.4 12.9 0.00 0.00 0.00 56 1017.0
20260507093547 20 346 8.0 14.5 0.00 0.00 0.00 57 1017.0
20260507092600 20 352 4.8 11.3 0.00 0.00 0.00 58 1016.9
20260507091530 20 19 6.4 12.9 0.00 0.00 0.00 59 1016.9
20260507090524 20 20 4.8 14.5 0.00 0.00 0.00 60 1016.9
20260507085547 19 41 4.8 12.9 0.00 0.00 0.00 61 1016.9
20260507084558 19 10 6.4 16.1 0.00 0.00 0.00 64 1016.9
20260507083552 19 22 8.0 14.5 0.00 0.00 0.00 66 1016.8
20260507082522 19 20 6.4 14.5 0.00 0.00 0.00 68 1016.6
20260507081546 20 36 4.8 12.9 0.00 0.00 0.00 56 1016.4
20260507080539 21 157 1.6 4.8 0.00 0.00 0.00 53 1016.3
20260507075552 21 179 3.2 6.4 0.00 0.00 0.00 56 1016.3
20260507074523 21 203 1.6 6.4 0.00 0.00 0.00 56 1016.3
20260507073547 20 238 3.2 6.4 0.00 0.00 0.00 57 1016.3
20260507071531 20 50 1.6 6.4 0.00 0.03 0.00 61 1016.4
20260507070524 20 113 1.6 3.2 0.00 0.03 0.00 62 1016.4
20260507065531 20 126 1.6 4.8 0.00 0.03 0.00 65 1016.3
20260507064523 19 86 1.6 3.2 0.00 0.03 0.00 69 1016.3
20260507063546 18 106 1.6 4.8 0.00 0.03 0.00 73 1016.4
20260507062538 17 89 1.6 4.8 0.00 0.03 0.00 77 1016.4
20260507061532 17 51 3.2 4.8 0.00 0.03 0.00 77 1016.4
20260507060523 17 132 0.0 1.6 0.00 0.03 0.00 77 1016.3
20260507055546 17 97 0.0 4.8 0.00 0.03 0.00 81 1016.3
20260507054538 16 122 1.6 3.2 0.00 0.03 0.00 84 1016.1
20260507053530 15 186 3.2 6.4 0.00 0.03 0.00 88 1016.0
20260507052522 15 181 0.0 3.2 0.00 0.03 0.00 88 1016.0
20260507051606 15 0.0 0.0 0.00 0.03 0.00 88 1015.9
20260507050539 15 0.0 0.0 0.00 0.03 0.00 88 1016.0
20260507045517 15 91 0.0 1.6 0.00 0.03 0.00 88 1015.6
20260507044524 15 187 1.6 1.6 0.00 0.05 0.00 88 1015.5
20260507043606 15 125 0.0 1.6 0.00 0.08 0.00 88 1015.3
20260507042538 15 130 1.6 4.8 0.00 0.10 0.00 88 1015.3
20260507041547 15 130 1.6 4.8 0.00 0.13 0.00 88 1015.3
20260507040600 15 135 1.6 4.8 0.00 0.13 0.00 88 1015.1
20260507035530 15 113 1.6 3.2 0.00 0.13 0.00 87 1015.1
20260507034522 15 118 1.6 4.8 0.00 0.13 0.00 86 1015.0
20260507033547 15 127 1.6 6.4 0.00 0.13 0.00 89 1015.0
20260507032538 15 115 1.6 3.2 0.00 0.13 0.00 89 1015.1
20260507031531 15 117 1.6 4.8 0.00 0.13 0.00 88 1015.1
20260507030522 15 135 1.6 4.8 0.00 0.13 0.00 88 1015.1
20260507025546 15 0.0 0.0 0.00 0.13 0.00 87 1015.0
20260507024539 15 0.0 0.0 0.00 0.13 0.00 86 1015.0
20260507023530 15 0.0 0.0 0.00 0.13 0.00 86 1014.9
20260507022524 15 0.0 0.0 0.00 0.13 0.00 86 1014.9
20260507021530 15 114 0.0 1.6 0.00 0.13 0.00 85 1015.0
20260507020538 16 104 0.0 1.6 0.00 0.13 0.00 85 1015.0
20260507015551 16 120 0.0 1.6 0.00 0.13 0.00 85 1015.0
20260507014542 16 0.0 0.0 0.00 0.13 0.00 84 1014.9
20260507013547 16 108 0.0 1.6 0.00 0.13 0.00 84 1014.9
20260507012522 16 134 1.6 3.2 0.00 0.13 0.00 83 1015.0
20260507011547 16 0.0 0.0 0.00 0.13 0.00 82 1015.0
20260507010539 16 89 1.6 4.8 0.00 0.13 0.00 82 1015.0
20260507005531 16 98 1.6 3.2 0.00 0.13 0.00 79 1015.0
20260507004523 17 0.0 0.0 0.00 0.13 0.00 78 1015.0
20260507003548 17 103 0.0 1.6 0.00 0.13 0.00 77 1014.9
20260507002538 17 0.0 1.6 0.00 0.13 0.00 77 1015.1
20260507001530 17 74 0.0 3.2 0.00 0.13 0.00 77 1015.1
20260507000522 17 309 0.0 3.2 0.00 0.13 0.00 75 1015.2
20260506235547 17 194 1.6 4.8 0.00 0.13 0.00 73 1015.1
20260506234540 18 151 1.6 4.8 0.00 0.13 0.00 71 1014.9
20260506233530 17 168 1.6 3.2 0.00 0.13 0.00 72 1014.9
20260506232522 17 184 3.2 4.8 0.00 0.13 0.00 73 1014.9
20260506231607 17 160 1.6 9.7 0.00 0.13 0.00 74 1014.6
20260506230539 18 150 3.2 11.3 0.00 0.13 0.00 72 1014.8
20260506225532 18 156 4.8 12.9 0.00 0.13 0.00 72 1014.8
20260506224542 18 158 4.8 9.7 0.00 0.13 0.00 73 1014.9
20260506223546 17 175 6.4 14.5 0.00 0.13 0.00 73 1014.8
20260506222540 17 162 4.8 14.5 0.00 0.13 0.00 74 1014.9
20260506221531 17 147 3.2 11.3 0.00 0.13 0.00 74 1015.0
20260506220544 17 150 3.2 6.4 0.00 0.13 0.00 75 1014.9
20260506215532 17 150 3.2 11.3 0.00 0.13 0.13 76 1015.0
20260506214522 16 138 1.6 4.8 0.00 0.13 0.13 80 1015.0
20260506213546 17 133 3.2 6.4 0.00 0.13 0.13 81 1014.9
20260506212639 17 118 3.2 4.8 0.00 0.13 0.13 79 1015.0
20260506211530 17 115 1.6 4.8 0.00 0.18 0.13 80 1015.0
20260506210522 17 123 0.0 1.6 0.00 0.18 0.13 81 1015.0
20260506205547 17 153 1.6 1.6 0.00 0.23 0.13 79 1015.1
20260506204539 17 126 0.0 3.2 0.00 0.33 0.13 78 1015.0